Location: Flitcham
(52.8000°N, 0.5667°E)
Time: 21:39:45
(UTC+00:00)

Cosmos 44 - Pass Details

Date: 15 May 2026
Orbit: 568 x 782 km, 65.1° (Epoch: 10 June)

Event Time Altitude Azimuth Distance (km) Brightness Sun altitude
Rises 22:30:42 0° 315° (NW) 3,279 8.0 -15.9°
Reaches altitude 10° 22:33:12 10° 311° (NW) 2,344 7.0 -16.0°
Maximum altitude 22:38:25 51° 237° (WSW) 964 3.9 -16.3°
Enters shadow 22:41:02 27° 174° (S) 1,431 4.3 -16.4°
